[[{"header":{"parameterUnit":"m.s-1","parameterCategory":1,"la1":30.2991,"la2":30.254,"lo1":-89.0895,"lo2":-89.0444,"dy":0.0017,"dx":0.0017,"nx":28,"ny":28,"refTime":"2025-09-11T09:00:00:Z","depth":0,"parameterNumber":2,"parameterNumberName":"U-component_of_WINDS"},"data":[0,0,0,0,0,0,0,0,0,0,0,0,0,0,0,0,0,0,0,0,0,0,0,0,0,0,0,0,0,0,0,0,0,0,0,0,0,0,0,0,0,0,0,0,0,0,0,0,0,0,0,0,0,0,0,0,0,0,-1.4495,-1.4495,0,-1.451,-1.451,-1.451,-1.4475,-1.4474,-1.4473,-1.4472,-1.4489,-1.449,-1.4492,0,0,0,0,0,0,0,0,0,0,0,0,0,-1.4436,-1.4437,-1.4495,-1.4495,-1.4495,-1.451,-1.451,-1.451,-1.4475,-1.4474,-1.4473,-1.4471,-1.4488,-1.449,-1.4492,0,0,0,0,0,0,0,0,0,0,0,0,0,-1.4457,-1.4438,-1.4495,-1.4479,-1.4478,-1.451,-1.451,-1.451,-1.4476,-1.4474,-1.4472,-1.4471,-1.4488,-1.449,-1.4492,-1.454,0,0,-1.4499,-1.45,0,0,0,0,0,0,0,0,-1.4456,-1.446,-1.4481,-1.448,-1.4479,-1.4489,-1.4496,-1.452,-1.4476,-1.4477,-1.4472,-1.447,-1.449,-1.4492,-1.4499,-1.4541,-1.4541,-1.4499,-1.4501,-1.4502,-1.4502,0,0,0,0,0,0,0,-1.4455,-1.4459,-1.4501,-1.4482,-1.448,-1.4472,-1.4473,-1.45,-1.4493,-1.4476,-1.4474,-1.4476,-1.4489,-1.4497,-1.4499,-1.4542,-1.4499,-1.4501,-1.4503,-1.4503,-1.4623,-1.4624,0,0,0,0,0,0,-1.4455,-1.4458,-1.45,-1.4501,-1.4463,-1.4474,-1.4476,-1.4488,-1.4492,-1.4491,-1.4478,-1.4474,-1.4494,-1.4496,-1.4499,-1.4555,-1.4502,-1.4504,-1.4505,-1.4621,-1.4623,-1.4625,0,0,0,0,0,0,-1.4454,-1.4459,-1.45,-1.4479,-1.4483,-1.4477,-1.4491,-1.4489,-1.4496,-1.4493,-1.4492,-1.4486,-1.4493,-1.4496,-1.453,-1.4555,-1.4505,-1.4507,-1.4619,-1.4622,-1.4624,-1.4667,0,0,0,0,0,0,-1.4452,-1.4459,-1.4477,-1.4479,-1.4485,-1.453,-1.4492,-1.449,-1.45,-1.4496,-1.4501,-1.45,-1.4491,-1.4527,-1.4532,-1.4558,-1.4508,-1.4616,-1.462,-1.4623,-1.4664,-1.4671,-1.4678,0,0,0,0,0,-1.4451,-1.4489,-1.4478,-1.4483,-1.4507,-1.4531,-1.4534,-1.4523,-1.4502,-1.452,-1.4518,-1.45,-1.4552,-1.453,-1.4536,-1.4563,-1.4615,-1.4619,-1.4623,-1.4661,-1.467,-1.4678,0,0,0,0,0,0,-1.449,-1.4489,-1.4477,-1.4517,-1.4525,-1.4525,-1.4548,-1.4533,-1.4547,-1.4542,-1.4528,-1.4529,-1.4566,-1.4568,-1.4544,-1.4609,-1.458,-1.4585,-1.4606,-1.4615,-1.4622,-1.4621,-1.451,0,0,0,0,0,-1.4504,-1.4523,-1.4521,-1.4557,-1.4561,-1.4554,-1.4564,-1.4555,-1.4562,-1.4565,-1.4565,-1.4573,-1.4591,-1.4603,-1.4619,-1.4664,-1.4664,-1.4685,-1.4692,-1.4698,-1.4703,-1.4726,-1.4735,-1.4639,-1.4638,-1.4638,0,0,-1.4532,-1.4533,-1.4547,-1.4565,-1.457,-1.459,-1.4557,-1.458,-1.4596,-1.4568,-1.46,-1.4601,-1.4609,-1.4648,-1.4665,-1.465,-1.4729,-1.4703,-1.4708,-1.4709,-1.4731,-1.474,-1.4748,-1.4641,-1.4641,-1.464,0,0,-1.4593,-1.4597,-1.4627,-1.4632,-1.4639,-1.4633,-1.4641,-1.4643,-1.4643,-1.4674,-1.4654,-1.4672,-1.4703,-1.4709,-1.4717,-1.478,-1.4764,-1.4786,-1.4823,-1.4846,-1.4853,-1.486,-1.4883,-1.4891,-1.4791,-1.4791,-1.4791,0,-1.4627,-1.4658,-1.4644,-1.4669,-1.4677,-1.4653,-1.4683,-1.4689,-1.4701,-1.4708,-1.4691,-1.4729,-1.4733,-1.4773,-1.4788,-1.4795,-1.4803,-1.4785,-1.4853,-1.486,-1.4866,-1.4887,-1.4896,-1.4794,-1.4793,-1.4793,-1.4793,0,-1.4699,-1.472,-1.4744,-1.4755,-1.4767,-1.4794,-1.4785,-1.4798,-1.4787,-1.4784,-1.4816,-1.4819,-1.4836,-1.4845,-1.4835,-1.4883,-1.4874,-1.4856,-1.4826,-1.4878,-1.4898,-1.4906,-1.4797,-1.4796,-1.4796,-1.4795,0,0,-1.4786,-1.479,-1.4799,-1.4803,-1.4809,-1.4826,-1.4852,-1.4867,-1.4879,-1.4888,-1.491,-1.4937,-1.4919,-1.4928,-1.4918,-1.4938,-1.4988,-1.4917,-1.4917,-1.493,-1.5042,-1.5055,-1.5065,-1.4978,-1.4979,-1.498,-1.5041,0,-1.4847,-1.4892,-1.488,-1.4925,-1.4944,-1.4921,-1.4944,-1.495,-1.4948,-1.4964,-1.4961,-1.498,-1.4957,-1.4961,-1.498,-1.4978,-1.501,-1.4974,-1.4998,-1.4999,-1.4997,-1.5075,-1.509,-1.5147,-1.5049,-1.505,-1.5051,0,-1.4924,-1.4935,-1.4982,-1.4984,-1.4992,-1.5013,-1.5026,-1.5042,-1.5048,-1.5045,-1.5054,-1.504,-1.5066,-1.5037,-1.5072,-1.5048,-1.5057,-1.5058,-1.5059,-1.5061,-1.5028,-1.5079,-1.5165,-1.5174,-1.5063,-1.5062,-1.5061,0,-1.4983,-1.501,-1.5041,-1.5046,-1.505,-1.5065,-1.5067,-1.5072,-1.5081,-1.5093,-1.5099,-1.5114,-1.5122,-1.5134,-1.5125,-1.5104,-1.5162,-1.5132,-1.516,-1.5161,-1.5174,-1.5173,-1.5262,-1.518,-1.518,-1.5179,-1.5179,0,-1.5052,-1.5081,-1.5068,-1.5087,-1.5119,-1.5105,-1.5138,-1.5137,-1.5142,-1.5161,-1.5142,-1.516,-1.5147,-1.5164,-1.5157,-1.5188,-1.5191,-1.519,-1.5187,-1.5191,-1.5191,-1.5197,-1.5193,-1.5182,-1.5181,-1.5181,-1.518,0,-1.5123,-1.5115,-1.5148,-1.5148,-1.5149,-1.5172,-1.5173,-1.5191,-1.5186,-1.5211,-1.5215,-1.5209,-1.5228,-1.522,-1.5241,-1.5236,-1.5275,-1.5268,-1.5273,-1.5271,-1.53,-1.5297,-1.5396,-1.5408,-1.5318,-1.5319,-1.532,0,-1.5167,-1.5189,-1.5192,-1.5203,-1.5206,-1.5224,-1.5234,-1.5222,-1.5233,-1.5241,-1.5258,-1.5276,-1.5289,-1.5321,-1.5318,-1.5334,-1.5326,-1.536,-1.5329,-1.5332,-1.5327,-1.5325,-1.5327,-1.5366,-1.5367,-1.5368,-1.5369,0,-1.5247,-1.5242,-1.5257,-1.527,-1.5282,-1.5292,-1.5301,-1.5311,-1.5299,-1.5312,-1.5331,-1.5342,-1.5362,-1.538,-1.5393,-1.5396,-1.538,-1.5378,-1.5386,-1.539,-1.5392,-1.5391,-1.529,-1.5376,-1.5376,-1.5375,-1.5375,-1.5374,-1.5306,-1.5324,-1.5329,-1.5346,-1.5351,-1.5359,-1.5376,-1.5373,-1.5389,-1.5404,-1.5396,-1.5418,-1.5424,-1.544,-1.5445,-1.5462,-1.5449,-1.546,-1.5463,-1.5466,-1.5469,-1.5389,-1.5465,-1.5464,-1.5464,-1.5464,-1.5464,0,-1.5384,-1.5386,-1.5402,-1.5414,-1.5427,-1.5411,-1.542,-1.5432,-1.5452,-1.5458,-1.5471,-1.5493,-1.551,-1.5509,-1.5524,-1.5538,-1.5532,-1.5543,-1.5541,-1.5542,-1.548,-1.5472,-1.5548,-1.5548,-1.5548,-1.5548,-1.5548,-1.5548,-1.5427,-1.5457,-1.5452,-1.5485,-1.5486,-1.5507,-1.5513,-1.5521,-1.5526,-1.5551,-1.5565,-1.5563,-1.5567,-1.5582,-1.5597,-1.5596,-1.5603,-1.5616,-1.5613,-1.5555,-1.5547,-1.5539,-1.5531,-1.5618,-1.5618,-1.5673,-1.5674,-1.5674]},{"header":{"parameterUnit":"m.s-1","parameterCategory":1,"la1":30.2991,"la2":30.254,"lo1":-89.0895,"lo2":-89.0444,"dy":0.0017,"dx":0.0017,"nx":28,"ny":28,"refTime":"2025-09-11T09:00:00:Z","depth":0,"parameterNumber":3,"parameterNumberName":"V-component_of_WINDS"},"data":[0,0,0,0,0,0,0,0,0,0,0,0,0,0,0,0,0,0,0,0,0,0,0,0,0,0,0,0,0,0,0,0,0,0,0,0,0,0,0,0,0,0,0,0,0,0,0,0,0,0,0,0,0,0,0,0,0,0,-1.2199,-1.22,0,-1.2319,-1.2321,-1.2322,-1.2388,-1.2388,-1.2388,-1.2389,-1.2508,-1.2511,-1.2514,0,0,0,0,0,0,0,0,0,0,0,0,0,-1.2023,-1.2026,-1.2199,-1.22,-1.2202,-1.2319,-1.2321,-1.2322,-1.2388,-1.2388,-1.2388,-1.2389,-1.2507,-1.251,-1.2514,0,0,0,0,0,0,0,0,0,0,0,0,0,-1.2117,-1.2027,-1.2199,-1.2249,-1.2255,-1.2319,-1.2321,-1.2323,-1.2388,-1.2388,-1.2388,-1.2389,-1.2506,-1.251,-1.2514,-1.2536,0,0,-1.2528,-1.253,0,0,0,0,0,0,0,0,-1.2111,-1.2123,-1.224,-1.2246,-1.2252,-1.2339,-1.2302,-1.2394,-1.2388,-1.2337,-1.2389,-1.2389,-1.2451,-1.246,-1.2482,-1.2542,-1.2547,-1.2528,-1.2531,-1.2533,-1.2534,0,0,0,0,0,0,0,-1.2105,-1.2118,-1.2246,-1.2242,-1.2249,-1.2264,-1.2278,-1.232,-1.2391,-1.2342,-1.2347,-1.236,-1.2454,-1.2477,-1.2485,-1.2549,-1.2528,-1.2532,-1.2535,-1.2537,-1.2633,-1.2633,0,0,0,0,0,0,-1.2091,-1.2112,-1.2243,-1.225,-1.2181,-1.2267,-1.2283,-1.2311,-1.2391,-1.2403,-1.236,-1.2363,-1.247,-1.248,-1.249,-1.2521,-1.2533,-1.2537,-1.254,-1.2633,-1.2633,-1.2632,0,0,0,0,0,0,-1.2087,-1.2102,-1.2238,-1.2183,-1.2201,-1.227,-1.2301,-1.2313,-1.2336,-1.2405,-1.2417,-1.2371,-1.247,-1.2483,-1.2525,-1.2526,-1.2539,-1.2543,-1.2633,-1.2633,-1.2633,-1.2582,0,0,0,0,0,0,-1.2081,-1.21,-1.211,-1.2183,-1.2204,-1.2271,-1.2301,-1.2315,-1.2344,-1.2349,-1.2418,-1.243,-1.2471,-1.2517,-1.2529,-1.2532,-1.2547,-1.2633,-1.2633,-1.2633,-1.2584,-1.258,-1.2577,0,0,0,0,0,-1.2075,-1.209,-1.211,-1.2125,-1.2218,-1.2271,-1.2284,-1.2333,-1.2344,-1.2354,-1.2398,-1.2427,-1.2524,-1.2521,-1.2535,-1.2539,-1.2633,-1.2633,-1.2633,-1.2586,-1.2581,-1.2577,0,0,0,0,0,0,-1.2014,-1.21,-1.2123,-1.2163,-1.2209,-1.2283,-1.2297,-1.2326,-1.237,-1.2372,-1.243,-1.2445,-1.2481,-1.2514,-1.251,-1.2564,-1.2582,-1.2584,-1.2541,-1.2538,-1.2534,-1.2525,-1.2551,0,0,0,0,0,-1.2005,-1.2043,-1.2116,-1.2143,-1.2166,-1.2227,-1.2252,-1.2286,-1.2336,-1.2356,-1.2403,-1.2449,-1.249,-1.2516,-1.2557,-1.259,-1.2605,-1.2599,-1.2596,-1.2592,-1.2593,-1.2613,-1.2611,-1.2631,-1.2631,-1.2631,0,0,-1.1988,-1.2039,-1.2059,-1.2133,-1.2173,-1.2209,-1.2243,-1.228,-1.2308,-1.2361,-1.2403,-1.2439,-1.2495,-1.2532,-1.255,-1.2561,-1.2591,-1.2592,-1.2589,-1.2592,-1.2612,-1.261,-1.2608,-1.2631,-1.2631,-1.2631,0,0,-1.1974,-1.2017,-1.2045,-1.2085,-1.2146,-1.2186,-1.2193,-1.2262,-1.2288,-1.2332,-1.2373,-1.2405,-1.2474,-1.2512,-1.2541,-1.2541,-1.257,-1.2553,-1.2535,-1.2553,-1.2551,-1.255,-1.255,-1.2549,-1.2554,-1.2554,-1.2554,0,-1.1943,-1.2001,-1.2055,-1.209,-1.2121,-1.2173,-1.22,-1.2236,-1.2306,-1.2326,-1.2337,-1.2425,-1.2466,-1.2512,-1.2513,-1.2534,-1.2543,-1.2545,-1.2547,-1.2547,-1.2546,-1.2546,-1.2546,-1.2552,-1.2552,-1.2552,-1.2552,0,-1.1961,-1.2,-1.2015,-1.2084,-1.2116,-1.2147,-1.2204,-1.2231,-1.2262,-1.2301,-1.2344,-1.2395,-1.2448,-1.2461,-1.2491,-1.2512,-1.2516,-1.2536,-1.2555,-1.2541,-1.2542,-1.2543,-1.2548,-1.2549,-1.255,-1.255,0,0,-1.1911,-1.201,-1.2014,-1.2046,-1.2117,-1.2148,-1.2181,-1.2234,-1.2255,-1.2302,-1.233,-1.2388,-1.2407,-1.2439,-1.2474,-1.249,-1.2487,-1.2508,-1.251,-1.2502,-1.2512,-1.2495,-1.2495,-1.2506,-1.2507,-1.2507,-1.2507,0,-1.1907,-1.1971,-1.202,-1.2065,-1.2101,-1.2151,-1.218,-1.2226,-1.2263,-1.2299,-1.234,-1.2379,-1.2402,-1.2422,-1.244,-1.2483,-1.2489,-1.2484,-1.2532,-1.2533,-1.2516,-1.2496,-1.2479,-1.2476,-1.2508,-1.2508,-1.2508,0,-1.1911,-1.1957,-1.2006,-1.2073,-1.209,-1.2116,-1.2168,-1.2202,-1.2255,-1.2281,-1.2317,-1.2353,-1.2389,-1.2404,-1.2455,-1.245,-1.2473,-1.2497,-1.2498,-1.2504,-1.2519,-1.25,-1.2477,-1.2476,-1.2509,-1.2509,-1.2509,0,-1.1869,-1.1944,-1.1982,-1.2008,-1.2088,-1.2104,-1.2138,-1.2192,-1.222,-1.2265,-1.2284,-1.2333,-1.2359,-1.2395,-1.2443,-1.245,-1.2488,-1.2507,-1.2509,-1.2508,-1.2514,-1.2513,-1.2493,-1.253,-1.253,-1.253,-1.253,0,-1.1859,-1.1886,-1.1965,-1.1988,-1.202,-1.2077,-1.2106,-1.2144,-1.2191,-1.2222,-1.2268,-1.2295,-1.2358,-1.2393,-1.243,-1.2466,-1.2477,-1.2498,-1.2508,-1.2494,-1.2491,-1.2509,-1.251,-1.253,-1.253,-1.253,-1.253,0,-1.1817,-1.1871,-1.1917,-1.1989,-1.2008,-1.2028,-1.2089,-1.2114,-1.2154,-1.2192,-1.2205,-1.2267,-1.2311,-1.2363,-1.2423,-1.2448,-1.248,-1.2494,-1.2462,-1.2468,-1.2467,-1.2466,-1.2457,-1.2459,-1.2494,-1.2494,-1.2493,0,-1.1807,-1.183,-1.1905,-1.193,-1.1962,-1.2001,-1.2031,-1.2087,-1.2116,-1.2178,-1.2195,-1.2242,-1.2283,-1.235,-1.24,-1.2446,-1.2462,-1.2456,-1.2469,-1.2454,-1.2461,-1.2459,-1.2461,-1.2452,-1.2451,-1.245,-1.245,0,-1.1783,-1.1808,-1.185,-1.1902,-1.1936,-1.1979,-1.2023,-1.204,-1.2105,-1.2135,-1.2181,-1.2213,-1.2275,-1.2321,-1.2373,-1.2407,-1.2439,-1.2446,-1.2449,-1.2434,-1.2414,-1.2424,-1.2452,-1.2445,-1.2446,-1.2446,-1.2446,-1.2447,-1.1756,-1.1778,-1.1835,-1.188,-1.192,-1.196,-1.1987,-1.2031,-1.2071,-1.2126,-1.2157,-1.2202,-1.2254,-1.2328,-1.236,-1.2395,-1.2407,-1.2411,-1.2412,-1.2412,-1.2407,-1.2409,-1.2405,-1.2405,-1.2406,-1.2406,-1.2406,0,-1.1733,-1.1773,-1.1814,-1.1875,-1.191,-1.1939,-1.199,-1.2017,-1.2056,-1.2103,-1.2143,-1.2195,-1.224,-1.2294,-1.2342,-1.236,-1.2376,-1.2371,-1.2369,-1.2377,-1.2395,-1.2387,-1.2357,-1.2357,-1.2357,-1.2357,-1.2357,-1.2357,-1.1726,-1.1765,-1.1797,-1.1856,-1.1895,-1.1941,-1.1967,-1.2004,-1.2042,-1.2099,-1.2137,-1.2173,-1.2222,-1.2274,-1.2316,-1.2331,-1.2346,-1.2337,-1.2355,-1.2371,-1.2375,-1.2379,-1.2372,-1.234,-1.234,-1.2334,-1.2334,-1.2334]}]]